Tracking 31011 objects as of 13-Jul-2025
HD Live streaming from Space Station
objects crossing your sky now

STARLINK-3698

Track STARLINK-3698 now!
10-day predictions
STARLINK-3698 is classified as:


NORAD ID: 52108
Int'l Code: 2022-029W
Perigee: 545.7 km
Apogee: 548.2 km
Inclination: 53.2 °
Period: 95.4 minutes
Semi major axis: 6917 km
RCS: Unknown
Launch date: March 19, 2022
Source: United States (US)
Launch site: AIR FORCE EASTERN TEST RANGE (AFETR)
Your satellite tracking list
Your tracking list is empty




NASA's NSSDC Master Catalog

Two Line Element Set (TLE):
1 52108U 22029W   25194.04339237  .00005592  00000-0  36938-3 0  9996
2 52108  53.2178  74.9350 0001861 103.5990 256.5210 15.08816964184603
Source of the keplerian elements: AFSPC